Regional Weather Roundup
Issued by NWS

Home | Current Version | Previous Version | Graphics & Text | Print | Product List | Glossary On
Versions: 1 2 3 4 5 6 7 8 9 10 11 12 13 14 15 16 17 18 19 20 21 22 23 24 25 26 27 28 29 30 31 32 33 34 35 36 37 38 39 40 41 42 43 44 45 46 47 48 49 50
000
ASUS43 KFSD 300102
RWRSD

WEATHER ROUNDUP FOR SOUTH DAKOTA
NATIONAL WEATHER SERVICE SIOUX FALLS SD
800 PM CDT MON MAY 29 2017

NOTE: "FAIR" INDICATES FEW OR NO CLOUDS BELOW 12,000 FEET WITH NO
SIGNIFICANT WEATHER AND/OR OBSTRUCTIONS TO VISIBILITY.


SDZ001>005-009-010-012>017-300200-
NORTHWEST AND NORTH CENTRAL SOUTH DAKOTA

CITY           SKY/WX    TMP DP  RH WIND       PRES   REMARKS
BUFFALO          N/A     65  29  25 NW26      30.02S
FAITH            N/A     65  30  27 NW20      30.04S
MOBRIDGE       MOSUNNY   64  33  31 NW14      29.98F
$$

SDZ012>016-024>037-041>051-057-063-072>074-300200-
SOUTHWEST AND SOUTH CENTRAL SOUTH DAKOTA

CITY           SKY/WX    TMP DP  RH WIND       PRES   REMARKS
RAPID CTY ARPT SUNNY     66  28  24 N22G29    30.08S
PIERRE         SUNNY     67  31  26 N15       30.00R
CUSTER         SUNNY     59  20  22 NW8       30.16S
ELLSWORTH AFB  SUNNY     66  28  23 N20       30.08S
PHILIP         SUNNY     68  31  25 N16G26    30.03F
PINE RIDGE     SUNNY     67  35  30 N7        30.10S
SPEARFISH      FAIR      61  28  29 N16G25    30.13F
WINNER         MOCLDY    66  38  35 NW10      30.03S
$$

SDZ004>011-016>023-039-040-300200-
NORTHEAST SOUTH DAKOTA

CITY           SKY/WX    TMP DP  RH WIND       PRES   REMARKS
ABERDEEN       CLOUDY    63  35  35 NW18G26   29.96S
WATERTOWN      MOCLDY    58  41  53 NW17G24   29.95S
BROOKINGS      PTCLDY    60  43  53 N13       29.97S
SISSETON         N/A     60  42  51 NW17      29.92R
$$

SDZ017-020-022-023-036>040-048>070-300200-
SOUTHEAST SOUTH DAKOTA

CITY           SKY/WX    TMP DP  RH WIND       PRES   REMARKS
SIOUX FALLS    PTCLDY    63  44  50 NW16      29.98S
HURON          MOSUNNY   65  37  35 N13G22    29.97S
CHAMBERLAIN    MOSUNNY   67  36  32 NW12      30.00S
MITCHELL       PTCLDY    63  46  54 CALM      29.99S
YANKTON        PTCLDY    65  42  43 NW12      30.01S
$$

ABBREVIATIONS USED IN REMARKS
   TC - TEMPERATURE IN CELSIUS
  WCI - WIND CHILL INDEX
   HX - HEAT INDEX
  VSB - VISIBILITY




USA.gov is the U.S. government's official web portal to all federal, state and local government web resources and services.